STARLINK-32390, 61630

Orbit data source: Space-Track

STARLINK-32390, 61630 is a payload satellite owned by SpaceX/Seattle (US) in LEO that was launched on Wed, 23 Oct 2024 UTC via an FALCON 9 launch vehicle from the Air Force Eastern Test Range (AFETR). Payload-class satellites include a variety of spacecraft equipped with specific instruments for various scientific and technological missions. These include communications satellites like Starlink; space stations such as the ISS; scientific satellites like the Hubble; Earth observation satellites from companies like Planet Labs, Umbra, and HawkEye 360; GPS; miniature CubeSats for education and research; and military/defense satellites.

Loading next visibility...
Identifier
61630, 2024-191K
Orbit
LEO
Country
Flag of USUS
Related business
Manufacturer
SpaceX/Seattle
Mission
Operational Commercial Communications
Bus & Motor
STARLINK V2M, Unknown motor
Mass
730 kg wet, ~700 kg dry
Launch date (UTC)
2024-10-23 (1 year ago)
Launch vehicle
FALCON 9
Launch site
Air Force Eastern Test Range (AFETR)
Object type
Payload
Rocket body
Debris
Shape & HBR
Box + 2 Pan, 17.7 m
Radar Cross Section
33.884 m², Large (>1 m²)

Expand to show TLE details & history
Last TLE update: 15 hours ago

TLE from 15 hours ago
0 STARLINK-32390
1 61630U 24191K   25288.59534159 -.00002590  00000-0 -84611-4 0  9991
2 61630  43.0020 254.1320 0000891 251.5399 108.5356 15.27583895 55344
Epoch: 2025-10-15T14:17Z
TLE epoch observation values (Epoch: 2025-10-15T14:17:17.513Z)
Latitude
-0°
Longitude
15.44187°
Altitude
483.007 km
Speed
7.626 km/s
True Right ascension
16h 56m 31s
True Declination
0° 00' 00"
Sunlit
Object was in daylight at epoch
Visualization orbit readout
Latitude
Unknown
Longitude
Unknown
Altitude
Unknown
Speed
Unknown
Apparent Right ascension
Unknown
Apparent Declination
Unknown
Sunlit
N/A
Visualization observer readout
Local Sidereal Time
00:05:22
Azimuth
Unknown
Elevation
Unknown
Doppler factor
Unknown
Orbital elements
Apogee altitude
485.594 km
Perigee altitude
484.371 km
Semi-major axis
6,863.119 km
Eccentricity
0.00009
Inclination
43.002°
RAAN
254.132°
Arg. of periapsis
251.5399°
True anomaly
108.54528°
Mean anomaly
108.5356°
Eccentric anomaly
108.54044°
Mean motion
3.81734 °/min
Orbital period
94.31 mins
BSTAR
-0.000084611
Loading maneuver chart data...
Computing Atmospheric mass density...
Loading historical data...
Loading historical data...
Loading historical data...
Loading historical data...
Loading historical data...
Loading historical data...
Loading historical data...

Documentation

Showing up to 5 results
|